Weather in Tsilna

Russia / Ulyanovsk Oblast     54°35′30″N   48°09′08″E
temp.,
°C
wind,
m/s
gust,
m/s
humid.,
%
clouds,
%
prec.,
mm/h
press.,
hPa
HPBL,
m
17 may, tue
tue1701:00+8wnw349027 0.1 100263
04:00+8w3693100 0.3 1001208
07:00+8w4797100 6.6 1000406
10:00+8wnw3689100 18.3 1002588
13:00+11wsw2470100 1.4 1002905
16:00+11wsw557034 2.6 1001919
19:00+10w347691 1.0 1001351
22:00+7wnw33885 1.1 100239
18 may, wed
wed1801:00+6wnw229059 0.0 100128
04:00+6wnw2291100 0.0 100133
07:00+7wnw3691100 0.1 1002270
10:00+10wnw6873100 0.3 10021021
13:00+8w71091100 0.3 1003706
16:00+9nw598767 0.9 1005648
19:00+9nw588374 0.6 1007602
22:00+7wnw4790100 0.6 1008272
19 may, thu
thu1901:00+6wnw3793100 0.1 1008186
04:00+6w4991100 0.3 1009548
07:00+6wnw598739 0.1 1009681
10:00+5w6891100 0.6 1010666
13:00+10wnw685854 0.1 10101635
16:00+6w71091100 3.3 1010859
19:00+7wnw68826 0.1 1010751
22:00+5nw5884100 0.1 1012554
20 may, fri
fri2001:00+3w510910 0.0 1012246
04:00+2w59925 0.0 1012192
07:00+5wnw6987100 0.0 1012494
10:00+7nw6775100 0.5 10121118
13:00+8nw4662100 1.2 10121399
16:00+9nw6756100 2.8 10121586
19:00+8nnw697110 1.1 1013884
22:00+4nw5108836 1.2 1014325
21 may, sat
sat2101:00+3nw5109223 0.0 1013303
04:00+2wnw37905 0.0 1014150
07:00+5wnw610855 0.0 1013391
10:00+8nw68665 0.0 10121166
13:00+10nnw6853100 0.1 10111634
16:00+10nnw5651100 0.1 10111583
19:00+9nne466627 0.1 1011987
22:00+5nne3470100 0.1 1011150